Home > Weather > Qikiqtarjuaq > Past weeks

Flag for Canada Weather for the Past 2 Weeks in Qikiqtarjuaq, Nunavut, Canada

Now
21 °F

More clouds than sun.


Feels Like: 9 °F
Forecast: 18 / 25 °F
Wind: 12 mph from Northeast

Location: Broughton Island Airport

Current Time: Apr 29, 2016 at 8:46:03 AM

Latest Report: Apr 29, 2016 at 8:00 AM


Visibility: 10 mi

Pressure: 30.22 "Hg

Humidity: 93%

Dew Point: 19 °F

Location of QikiqtarjuaqLocation

Historic Weather in Qikiqtarjuaq — Graph

°F

Qikiqtarjuaq Temperature Yesterday

Maximum temperature yesterday: 30 °F (at 2:00 PM)
Minimum temperature yesterday: 23 °F (at 12:00 AM)
Average temperature yesterday: 26 °F

High & Low Weather Summary for the Past Weeks

 TemperatureHumidityPressure
High34 °F (Apr 21, 4:00 PM)100% (Apr 27, 11:00 PM)30.46 "Hg (Apr 27, 11:00 PM)
Low-13 °F (Apr 19, 12:00 AM)38% (Apr 22, 9:00 AM)29.24 "Hg (Apr 21, 2:00 PM)
Average13 °F80%30.10 "Hg
* Reported Apr 14 7:03 AM — Apr 29 7:00 AM, Qikiqtarjuaq, Weather by CustomWeather, © 2016

Note: Actual official high and low records may vary slightly from our data, if they occured in-between our weather recording intervals... More about our weather records

Advertising

Qikiqtarjuaq Weather History for the Previous 24 Hours

Scroll right to see more
 ConditionsComfort  
Time TempWeatherWind HumidityBarometerVisibility
7:00 AM
Fri, Apr 29
21 °FOvercast.10 mph86%30.24 "Hg9 mi
6:00 AM21 °FMostly cloudy.17 mph86%30.24 "Hg9 mi
5:00 AM23 °FMostly cloudy.15 mph86%30.24 "Hg9 mi
4:00 AM23 °FOvercast.15 mph86%30.26 "Hg9 mi
3:00 AM23 °FOvercast.21 mph86%30.27 "Hg9 mi
2:00 AM23 °FOvercast.20 mph86%30.28 "Hg9 mi
1:00 AM23 °FOvercast.17 mph93%30.29 "Hg9 mi
12:00 AM23 °FOvercast.18 mph93%30.30 "Hg9 mi
11:00 PM
Thu, Apr 28
25 °FOvercast.20 mph86%30.31 "Hg9 mi
10:00 PM25 °FOvercast.16 mph93%30.32 "Hg9 mi
9:00 PM25 °FOvercast.20 mph93%30.33 "Hg9 mi
8:00 PM25 °FOvercast.22 mph93%30.33 "Hg9 mi
7:00 PM27 °FOvercast.16 mph86%30.34 "Hg9 mi
6:00 PM27 °FMore clouds than sun.17 mph93%30.34 "Hg15 mi
5:00 PM28 °FMostly cloudy.7 mph86%30.35 "Hg15 mi
4:00 PM28 °FMostly cloudy.10 mph86%30.36 "Hg15 mi
3:00 PM28 °FMore clouds than sun.9 mph86%30.36 "Hg15 mi
2:00 PM30 °FMostly cloudy.8 mph80%30.36 "Hg15 mi
1:00 PM28 °FMostly cloudy.8 mph86%30.36 "Hg15 mi
12:00 PM27 °FLow clouds.10 mph86%30.36 "Hg15 mi
11:00 AM27 °FLow clouds.6 mph93%30.36 "Hg15 mi
10:00 AM25 °FLow clouds.13 mph93%30.37 "Hg15 mi
9:00 AM25 °FLow clouds.12 mph86%30.37 "Hg15 mi
8:00 AM25 °FLow clouds.12 mph86%30.36 "Hg9 mi
Weather by CustomWeather, © 2016

See weather overviewHow to use our weather pages